St. Johns, AZ

7:52 PM MST on October 23, 2019 (GMT -0700)
Saint Johns Industrial

Weather History for KSJN - August, 2019

Change the Weather History Date:

Friday, August 9, 2019

  Actual Average (KLSB) Record (KLSB)
Temperature  
Mean Temperature 66 °F -  
Max Temperature 77 °F 93 °F 95 °F (2013)
Min Temperature 54 °F 62 °F 60 °F (2013)
Growing Degree Days 16 (Base 50)    
Moisture  
Dew Point 55 °F    
Average Humidity 65    
Maximum Humidity 93    
Minimum Humidity 29    
Precipitation  
Precipitation 0.10 in - - ()
Sea Level Pressure  
Sea Level Pressure 29.98 in    
Wind  
Wind Speed 8 mph (WSW)    
Max Wind Speed 23 mph    
Max Gust Speed 34 mph    
Visibility 10 miles    
Events Rain , Thunderstorm    
Averages and records for this station are not official NWS values.
T = Trace of Precipitation, MM = Missing Value Source: NWS Daily Summary

Daily Weather History Graph

Daily Weather History Graph

Search for Another Location

Airport or City:

Astronomy

Aug. 09, 2019 Rise Set
Actual Time 5:33 AM MST 7:11 PM MST
Civil Twilight 5:06 AM MST 7:38 PM MST
Nautical Twilight 4:34 AM MST 8:11 PM MST
Astronomical Twilight 3:59 AM MST 8:45 PM MST
Moon 2:53 PM MST (8/9) 12:34 AM MST (8/9)
Length of Visible Light 14h 32m
Length of Day
13h 38m
Waxing Gibbous, 71% of the Moon is Illuminated
Aug 9
Waxing Gibbous
Aug 15
Full
Aug 23
Last Quarter
Aug 30
New
Sep 5
First Quarter

Hourly Weather History & Observations

Time (MST) Temp. Dew Point Humidity Pressure Visibility Wind Dir Wind Speed Gust Speed Precip Events Conditions
12:54 AM 72.0 °F 53.1 °F 51% 29.82 in 10.0 mi South 4.6 mph - N/A   Partly Cloudy
1:19 AM 73.0 °F 54.0 °F 51% 30.15 in 10.0 mi NNE 3.5 mph - N/A Thunderstorm Thunderstorm
1:37 AM 70.0 °F 55.0 °F 59% 30.15 in 9.0 mi Variable 3.5 mph - 0.00 in Rain Light Rain
1:54 AM 69.1 °F 55.9 °F 63% 29.82 in 10.0 mi SW 18.4 mph 27.6 mph 0.01 in Rain Light Rain
2:01 AM 72.0 °F 51.1 °F 48% 30.14 in 10.0 mi West 23.0 mph 34.5 mph 0.00 in Rain , Thunderstorm Light Rain
2:10 AM 73.0 °F 50.0 °F 44% 30.14 in 10.0 mi WSW 16.1 mph 26.5 mph 0.00 in Rain Light Rain
2:35 AM 71.1 °F 53.1 °F 53% 30.16 in 10.0 mi West 17.3 mph - 0.00 in Rain , Thunderstorm Light Thunderstorms and Rain
2:54 AM 71.1 °F 51.1 °F 49% 29.83 in 10.0 mi West 12.7 mph - 0.00 in Rain Light Rain
3:54 AM 64.9 °F 57.0 °F 75% 29.91 in 10.0 mi WSW 20.7 mph 27.6 mph 0.00 in Rain Light Rain
4:54 AM 64.0 °F 57.0 °F 78% 29.92 in 10.0 mi WSW 15.0 mph - 0.02 in Rain Light Rain
5:54 AM 64.9 °F 57.0 °F 75% 29.95 in 10.0 mi WSW 6.9 mph - 0.00 in   Overcast
6:54 AM 64.9 °F 57.9 °F 78% 29.98 in 10.0 mi WSW 4.6 mph - 0.01 in Rain Light Rain
7:54 AM 64.9 °F 59.0 °F 81% 29.99 in 10.0 mi SW 5.8 mph - 0.01 in   Overcast
8:54 AM 64.0 °F 59.0 °F 84% 30.02 in 10.0 mi SW 5.8 mph - 0.01 in Rain Light Rain
9:54 AM 64.9 °F 59.0 °F 81% 30.03 in 10.0 mi WSW 10.4 mph - 0.01 in Rain Light Rain
10:54 AM 64.9 °F 57.9 °F 78% 30.03 in 10.0 mi West 6.9 mph - 0.00 in   Overcast
11:54 AM 64.9 °F 57.9 °F 78% 30.02 in 10.0 mi SW 5.8 mph - 0.01 in Rain Light Rain
12:54 PM 64.0 °F 57.0 °F 78% 30.02 in 10.0 mi Calm Calm - 0.02 in   Overcast
1:54 PM 66.9 °F 55.9 °F 68% 29.99 in 10.0 mi Calm Calm - N/A   Overcast
2:54 PM 68.0 °F 57.0 °F 68% 29.96 in 10.0 mi North 3.5 mph - N/A   Overcast
3:54 PM 68.0 °F 57.0 °F 68% 29.96 in 10.0 mi NNW 4.6 mph - N/A   Overcast
4:54 PM 73.0 °F 52.0 °F 48% 29.94 in 10.0 mi ENE 3.5 mph - N/A   Clear
5:54 PM 72.0 °F 54.0 °F 53% 29.91 in 10.0 mi NNW 4.6 mph - N/A   Clear
6:54 PM 71.1 °F 55.9 °F 59% 29.92 in 10.0 mi Calm Calm - N/A   Clear
7:54 PM 69.1 °F 57.9 °F 68% 29.93 in 10.0 mi South 4.6 mph - N/A   Clear
8:54 PM 66.9 °F 59.0 °F 76% 29.96 in 10.0 mi Calm Calm - N/A   Clear
9:54 PM 64.9 °F 57.9 °F 78% 29.96 in 10.0 mi West 3.5 mph - N/A   Clear
10:54 PM 63.0 °F 59.0 °F 87% 29.96 in 10.0 mi Calm Calm - N/A   Clear
11:54 PM 59.0 °F 57.0 °F 93% 29.97 in 10.0 mi West 3.5 mph - N/A   Clear